EHI
0 0 0 0 0 0 0 0 0 0 0 0 0 0 0 0 0 0 0 0 0 0 0 0 0 0 0 0 0 0 0 0 0 0 0 0 0 0 0 0 0 0 0
0 0 0 0 0 0 0 0 0 0 0 0 0 0 0 0 0 0 0 0 0 0 0 0 0 0 0 0 0 0 0 0 0 0 0 0 0 0 0 0 0 0 0
0 0 0 0 0 0 0 0 0 0 0 0 0 0 0 0 0 0 0 0 0 0 0 0 0 0 0 0 0 0 0 0 0 0 0 0 0 0 0 0 0 0 0
0 0 0 0 0 0 0 0 0 0 0 0 0 0 0 0 0 0 0 0 0 0 0 0 0 0 0 0 0 0 0 0 0 0 0 0 0 0 0 0 0 0 0
0 0 0 0 0 0 0 0 0 0 0 0 0 0 0 0 0 0 0 0 0 0 0 0 0 0 0 0 0 0 0 0 0 0 0 0 0 0 0 0 0 0 0
0 0 0 0 0 0 0 0 0 0 0 0 0 0 0 0 0 0 0 0 0 0 0 0 0 0 0 0 0 0 0 0 0 0 0 0 0 0 0 0 0 0 0
0 0 0 0 0 0 0 0 0 0 0 0 0 0 0 0 0 0 0 0 0 0 0 0 0 0 0 0 0 0 0 0 0 0 0 0 0 0 0 0 0 0 0
0 0 0 0 0 0 0 0 0 0 0 0 0 0 0 0 0 0 0 0 0 0 0 0 0 0 0 0 0 0 0 0 0 0 0 0 0 0 0 0 0 0 0
0 0 0 0 0 0 0 0 0 0 0 0 0 0 0 0 0 0 0 0 0 0 0 0 0 0 0 0 0 0 0 0 0 0 0 0 0 0 0 0 0 0 0
0 0 0 0 0 0 0 0 0 0 0 0 0 0 0 0 0 0 0 0 0 0 0 0 0 0 0 0 0 0 0 0 0 0 0 0 0 0 0 0 0 0 0
0 0 0 0 0 0 0 0 0 0 0 0 0 0 0 0 0 0 0 0 0 0 0 0 0 0 0 0 0 0 0 0 0 0 0 0 0 0 0 0 0 0 0
0 0 0 0 0 0 0 0 0 0 0 0 0 0 0 0 0 0 0 0 0 0 0 0 0 0 0 0 0 0 0 0 0 0 0 0 0 0 0 0 0 0 0
0 0 0 0 0 0 0 0 0 0 0 0 0 0 0 0 0 0 0 0 0 0 0 0 0 0 0 0 0 0 0 0 0 0 0 0 0 0 0 0 0 0 0
0 0 0 0 0 0 0 0 0 0 0 0 0 0 0 0 0 0 0 0 0 0 0 0 0 0 0 0 0 0 0 0 0 0 0 0 0 0 0 0 0 0 0
0 0 0 0 0 0 0 0 0 0 0 0 0 0 0 0 0 0 0 0 0 0 0 0 0 0 0 0 0 0 0 0 0 0 0 0 0 0 0 0 0 0 0
0 0 0 0 0 0 0 0 0 0 0 0 0 0 0 0 0 0 0 0 0 0 0 0 0 0 0 0 0 0 0 0 0 0 0 0 0 0 0 0 0 0 0
0 0 0 0 0 0 0 0 0 0 0 0 0 0 0 0 0 0 0 0 0 0 0 0 0 0 0 0 0 0 0 0 0 0 0 0 0 0 0 0 0 0 0
0 0 0 0 0 0 0 0 0 0 0 0 0 0 0 0 0 0 0 0 0 0 0 0 0 0 0 0 0 0 0 0 0 0 0 0 0 0 0 0 0 0 0
0 0 0 0 0 0 0 0 0 0 0 0 0 0 0 0 0 0 0 0 0 0 0 0 0 0 0 0 0 0 0 0 0 0 0 0 0 0 0 0 0 0 0
0 0 0 0 0 0 0 0 0 0 0 0 0 0 0 0 0 0 0 0 0 0 0 0 0 0 0 0 0 0 0 0 0 0 0 0 0 0 0 0 0 0 0
0 0 0 0 0 0 0 0 0 0 0 0 0 0 0 0 0 0 0 0 0 0 0 0 0 0 0 0 0 0 0 0 0 0 0 0 0 0 0 0 0 0 0
0 0 0 0 0 0 0 0 0 0 0 0 0 0 0 0 0 0 0 0 0 0 0 0 0 0 0 0 0 0 0 0 0 0 0 0 0 0 0 0 0 0 0
0 0 0 0 0 0 0 0 0 0 0 0 0 0 0 0 0 0 0 0 0 0 0 0 0 0 0 0 0 0 0 0 0 0 0 0 0 0 0 0 0 0 0
0 0 0 0 0 0 0 0 0 0 0 0 0 0 0 0 0 0 0 0 0 0 0 0 0 0 0 0 0 0 0 0 0 0 0 0 0 0 0 0 0 0 0
0 0 0 0 0 0 0 0 0 0 0 0 0 0 0 0 0 0 0 0 0 0 0 0 0 0 0 0 0 0 0 0 0 0 0 0 0 0 0 0 0 0 0
0 0 0 0 0 0 0 0 0 0 0 0 0 0 0 0 0 0 0 0 0 0 0 0 0 0 0 0 0 0 0 0 0 0 0 0 0 0 0 0 0 0 0
Wind_Speed
4 3 4 4 4 4 4 5 5 5 5 5 6 6 6 6 6 5 6 6 6 6 5 5 6 4 3 3 3 2 3 3 4 3 2 1 2 3 4 3 3 4 5
3 3 4 4 5 5 5 6 6 6 6 6 6 6 6 6 6 6 7 6 6 7 7 6 6 5 5 4 3 4 3 3 4 4 2 2 2 4 5 5 4 4 4
3 3 4 5 5 5 6 6 6 6 6 6 6 6 7 7 6 7 7 7 7 7 7 7 7 6 6 5 5 4 4 4 3 3 3 2 1 3 4 4 4 3 3
4 4 5 6 6 6 6 6 6 6 6 7 7 7 7 7 7 7 7 8 8 7 7 8 8 8 8 7 6 6 5 4 3 3 3 3 2 3 4 4 3 2 3
4 5 6 6 6 6 6 7 7 6 7 7 7 7 7 7 7 7 7 8 7 7 7 7 8 10 11 8 6 6 6 5 4 4 4 3 3 4 5 4 5 4 2
5 6 6 6 6 7 7 7 7 7 7 7 7 7 8 8 10 12 9 7 6 7 7 7 7 8 11 12 12 12 11 8 6 5 4 4 5 4 4 5 6 5 4
6 6 6 6 7 7 8 7 7 7 7 7 8 7 8 10 14 14 14 8 7 7 8 7 7 7 8 6 9 11 11 12 11 7 6 6 6 6 6 6 7 6 4
6 7 7 7 8 8 8 8 8 7 7 7 8 8 8 10 13 14 14 9 7 8 8 9 8 7 7 7 6 5 6 7 8 7 6 6 5 6 8 7 6 5 4
7 7 8 8 8 9 9 9 8 7 7 7 7 8 9 10 13 13 12 6 6 8 8 8 8 7 10 11 7 6 5 5 7 9 9 8 8 8 7 6 6 6 4
8 8 8 8 8 9 9 9 7 6 7 7 8 7 8 9 10 11 10 5 6 6 5 6 10 10 10 11 8 7 7 6 4 4 5 6 6 7 9 7 7 7 5
8 8 8 8 8 8 7 6 7 7 7 7 8 7 6 7 8 9 8 5 5 5 4 4 5 10 11 12 10 7 9 7 5 5 4 4 4 4 5 5 6 6 6
7 8 9 9 8 8 7 7 7 6 6 7 6 7 5 5 5 6 7 7 6 5 4 4 5 8 8 10 9 9 11 8 4 4 3 4 4 5 5 6 7 6 5
8 9 9 9 8 7 7 7 7 5 5 5 5 5 5 4 4 5 6 6 6 4 4 6 7 7 6 6 9 10 9 5 4 4 4 5 5 5 5 4 5 5 4
8 9 8 8 9 8 6 5 5 5 5 5 5 5 5 4 3 3 2 2 4 3 3 4 5 5 4 4 4 5 5 5 6 5 5 4 3 4 4 4 5 5 4
8 8 8 7 8 8 7 6 6 6 6 6 5 4 4 4 5 5 3 2 2 2 2 1 1 2 2 2 2 3 4 4 5 4 4 4 4 4 4 4 4 5 5
7 8 7 7 7 6 7 8 8 8 10 10 9 7 5 6 7 6 5 4 3 3 3 2 3 3 4 4 4 4 4 5 5 5 4 4 4 4 4 4 4 5 5
7 8 7 6 7 7 7 6 8 8 8 8 8 7 7 7 7 5 4 3 3 3 2 3 3 4 4 5 5 5 5 6 5 5 5 5 5 4 4 5 5 5 5
7 9 8 6 6 6 6 6 6 6 6 6 5 6 6 6 6 5 3 2 1 2 3 3 4 4 4 4 4 5 5 4 5 5 5 5 5 5 4 5 5 6 5
7 6 6 6 6 6 6 6 5 5 4 5 4 4 4 4 4 4 2 2 2 3 3 4 4 4 4 4 5 5 5 5 5 5 5 6 5 5 5 5 6 8 6
6 11 10 7 6 6 5 5 5 5 5 4 4 4 3 2 2 2 2 3 3 3 3 3 3 4 4 4 4 4 4 5 5 5 5 5 5 5 6 7 6 7 6
5 8 12 8 6 6 5 5 5 4 5 5 4 4 3 2 3 3 2 2 3 3 3 3 3 3 3 3 3 4 5 5 5 5 5 5 6 5 5 5 6 7 6
5 5 6 6 6 5 5 5 5 4 5 5 5 4 4 3 3 2 2 2 2 2 2 2 2 2 2 3 3 4 4 4 5 5 5 5 5 6 6 6 6 6 7
5 5 6 5 5 7 6 5 5 5 5 5 5 4 4 3 3 3 3 2 2 2 1 1 1 1 1 1 2 3 4 5 5 5 5 5 5 6 6 7 8 8 8
5 5 5 5 5 5 5 5 5 5 5 5 5 5 4 4 4 4 3 3 3 2 1 1 1 1 1 1 1 2 2 3 4 4 6 6 6 5 6 7 8 9 8
4 4 4 4 5 5 5 5 5 5 5 5 5 5 5 5 5 5 4 3 3 3 3 3 2 2 2 3 3 2 2 3 3 3 4 5 6 6 6 7 7 8 8
3 4 4 4 4 4 4 5 5 6 5 5 5 5 5 5 5 5 5 4 4 3 4 3 4 4 4 3 4 4 4 3 3 3 3 4 5 5 6 6 8 8 9
Wind_Direction
310 303 308 301 296 294 287 280 276 272 272 268 265 263 260 256 251 242 238 234 230 237 237 223 224 222 219 212 203 207 212 209 233 259 255 249 182 168 152 152 153 164 175
303 308 306 302 301 296 289 284 281 278 274 269 267 264 261 259 248 241 244 244 230 229 231 226 229 223 217 214 205 209 215 214 216 238 240 221 198 175 157 155 157 164 161
305 309 307 303 300 293 289 288 286 281 279 276 269 263 260 258 249 241 240 243 236 229 224 218 221 217 218 213 207 210 214 221 211 221 224 204 190 169 148 146 145 139 156
303 303 299 293 288 285 284 284 281 277 277 275 269 263 259 257 253 247 241 241 241 237 228 221 216 209 213 210 208 207 206 208 209 217 218 200 184 170 153 154 156 152 153
301 299 291 287 286 286 287 286 283 279 281 272 269 267 262 259 255 246 238 242 237 240 239 230 224 219 215 210 209 199 195 198 200 211 212 196 186 170 174 168 164 156 153
299 295 293 293 293 291 289 286 285 282 278 274 269 265 263 268 268 261 245 238 231 230 236 237 238 232 223 219 218 206 193 191 196 203 207 202 201 181 172 170 160 162 174
302 299 301 297 295 292 296 298 289 284 278 277 272 266 263 262 262 260 252 238 226 225 228 228 236 232 213 210 219 216 208 204 196 191 202 204 200 185 170 173 173 166 168
305 302 302 300 298 296 294 290 286 281 278 276 274 269 265 267 264 257 253 243 231 227 225 222 219 226 220 202 203 206 209 212 208 203 203 208 203 186 178 174 166 144 121
304 302 302 302 302 302 298 292 287 284 284 279 276 272 267 269 264 258 249 234 230 230 227 224 214 215 220 207 195 197 208 227 225 215 206 204 198 186 168 150 150 152 152
301 300 302 301 301 299 294 290 288 285 283 286 286 279 271 270 268 261 245 223 225 229 231 228 221 216 213 207 196 191 199 213 210 206 209 212 205 194 183 174 165 164 154
301 304 305 303 300 294 291 289 292 292 293 294 293 289 282 276 276 267 245 219 217 220 225 223 221 219 215 210 199 192 202 194 189 188 190 193 191 191 189 185 179 171 166
307 309 308 307 305 309 301 297 296 295 299 301 300 301 293 289 284 272 252 231 216 211 223 223 218 215 215 209 203 202 199 188 173 174 182 193 192 193 194 189 191 188 179
315 313 311 310 305 302 299 299 301 298 296 296 299 299 299 297 296 287 268 249 235 220 220 217 206 205 208 206 207 201 189 180 173 178 192 204 201 192 180 182 183 178 171
314 312 311 311 310 308 303 295 291 291 293 294 296 296 297 300 302 306 292 263 248 230 217 213 198 192 190 195 191 192 184 181 179 186 195 200 190 175 180 177 177 169 164
312 310 311 307 305 307 305 296 289 274 262 268 277 278 287 293 291 290 279 261 229 207 177 167 164 169 185 192 189 183 183 181 191 188 186 187 186 184 186 180 170 164 170
315 314 310 310 308 307 309 311 296 280 281 273 260 258 266 265 285 295 286 263 240 197 172 188 197 198 200 199 196 194 193 197 198 191 187 187 186 188 189 180 171 172 175
310 310 308 308 308 310 311 311 314 314 303 295 284 271 258 271 285 291 291 282 255 193 195 211 209 208 208 201 197 197 201 201 192 188 190 190 184 183 183 178 173 173 175
311 311 312 304 305 306 307 306 302 307 316 315 302 285 279 276 279 281 282 295 264 215 217 221 221 216 212 205 200 203 204 194 188 191 191 188 182 180 184 179 177 176 173
314 310 310 307 306 305 306 308 308 311 310 307 310 312 297 292 290 278 252 230 239 240 235 232 227 219 213 206 201 199 196 194 191 189 189 186 180 178 185 183 180 179 170
313 319 326 316 314 315 316 319 320 321 320 317 312 304 308 307 305 285 240 234 245 250 247 243 235 224 216 208 200 195 194 192 189 187 186 184 181 179 184 183 179 177 177
313 319 327 324 317 315 318 322 322 324 324 323 314 305 304 291 291 288 276 256 246 246 247 243 243 238 227 214 202 197 194 191 186 182 182 183 180 180 183 180 179 176 169
311 312 316 318 320 322 323 321 323 326 328 328 324 325 320 312 306 302 295 282 269 263 254 239 242 243 227 211 196 189 190 191 187 180 179 180 178 177 173 173 173 170 168
315 317 320 323 326 330 336 336 334 334 334 333 333 336 335 327 318 317 314 307 303 300 305 276 244 264 251 204 184 182 186 189 185 176 174 173 173 175 172 171 172 170 172
316 321 325 327 331 336 339 338 340 342 342 341 342 344 344 343 341 339 333 329 334 343 352 349 339 358 36 95 135 152 166 166 161 165 165 165 168 169 167 166 169 170 169
323 328 332 333 334 333 336 339 343 346 346 347 346 347 348 350 352 355 352 349 359 16 23 26 19 17 41 67 79 92 116 135 146 149 151 155 161 163 162 163 164 162 160
332 339 341 336 333 335 339 343 347 348 344 348 350 351 352 357 2 3 1 6 15 26 30 32 40 49 51 55 67 84 97 107 122 138 145 147 151 153 152 154 158 158 157